Location: Borojevi?i
(45.0486°N, 16.2297°E)
Time: 01:05:57
(UTC+00:00)

Cosmos 1992 Rocket - Pass Details

Date: 08 August 2020
Orbit: 759 x 765 km, 74.0° (Epoch: 25 September)

Event Time Altitude Azimuth Distance (km) Brightness Sun altitude
Rises 18:32:18 0° 339° (NNW) 3,242 8.1 -4.1°
Reaches altitude 10° 18:34:41 10° 341° (NNW) 2,311 7.3 -4.5°
Maximum altitude 18:39:57 80° 69° (ENE) 781 4.0 -5.3°
Drops below altitude 10° 18:45:09 10° 156° (SSE) 2,292 6.0 -6.1°
Enters shadow 18:47:21 - 158° (SSE) 3,146 6.7 -6.4°
